#timestamp,LO_Frequency,Hit,StdDev 
1514833215.2,286046994.1,N
1514833235.0,286046996.2,N
1514833235.9,286046996.2,N
1514833255.7,286046995.6,N
1514833275.6,286046998.9,N
1514833295.4,286046997.7,N
1514833315.2,286046995.2,N
1514833335.1,286046993.0,Y
1514833336.0,286046993.0,P
1514833355.8,286046991.8,P
1514833375.6,286046991.8,P
1514833395.5,286046994.8,N
1514833415.3,286046990.3,Y
1514833435.1,286046997.9,P
1514833455.9,286046998.1,N
1514833475.7,286046999.8,N
1514833495.5,286046998.5,N
1514833515.4,286047001.0,N
1514833535.2,286047000.8,N
1514833555.0,286047000.8,N
1514833555.9,286047000.8,N
1514833575.8,286047002.8,N
1514833595.6,286047001.4,N
1514833615.4,286047003.7,N
1514833635.3,286047005.6,N
1514833655.1,286047005.8,N
1514833656.0,286047005.8,N
1514833675.8,286047003.6,N
1514833695.7,286047001.3,N
1514833715.5,286047003.2,N
1514833735.3,286047005.4,N
1514833755.1,286047003.1,N
1514833775.9,286047004.8,N
1514833795.7,286047004.0,N
1514833815.5,286047001.4,N
1514833835.4,286047002.2,N
1514833855.2,286047001.3,N
1514833875.0,286046999.8,N
1514833875.9,286046999.8,N
1514833895.8,286047000.1,N
1514833915.6,286046998.6,N
1514833935.4,286047002.4,N
1514833955.3,286047001.7,N
1514833975.1,286047001.3,N
1514833976.0,286047001.3,N
1514833995.8,286047003.9,N
1514834015.7,286047003.1,N
1514834035.5,286047004.3,N
1514834055.3,286047003.9,N
1514834075.2,286047003.2,N
1514834095.9,286047004.1,N
1514834115.7,286047004.7,N
1514834135.6,286047006.2,Y
1514834155.4,286047005.1,P
1514834175.2,286047005.1,P
1514834195.0,286047006.2,P
1514834196.0,286047006.2,Y
1514834215.8,286047007.3,P
1514834235.6,286047007.0,P
1514834255.5,286047007.3,P
1514834275.3,286047006.7,Y
1514834295.1,286047001.4,P
1514834315.9,286047002.2,N
1514834335.7,286047006.1,N
1514834355.5,286047001.4,N
1514834375.3,286047000.2,N
1514834395.2,286047002.7,N
1514834415.0,286047000.8,N
1514834415.9,286047000.8,N
1514834435.7,286047001.1,N
1514834455.6,286047000.5,N
1514834475.4,286047001.1,N
1514834495.2,286047002.8,N
1514834515.1,286047004.4,N
1514834516.0,286047004.4,N
1514834535.8,286047003.5,N
1514834555.6,286047002.1,N
1514834575.5,286047000.6,N
1514834595.3,286046999.2,N
1514834615.1,286046997.1,N
1514834635.8,286046997.3,N
1514834655.7,286046997.3,N
1514834675.5,286046993.6,N
1514834695.3,286046996.3,N
1514834715.2,286046991.8,N
1514834735.0,286046994.6,N
1514834735.9,286046994.6,N
1514834755.7,286046993.7,N
1514834775.6,286046992.0,N
1514834795.4,286046992.8,N
1514834815.2,286046991.4,N
1514834835.1,286046988.9,N
1514834836.0,286046988.9,N
1514834855.8,286046989.7,N
1514834875.6,286046986.9,N
1514834895.5,286046989.3,N
1514834915.3,286046991.1,N
1514834935.1,286046990.5,N
1514834955.9,286046986.0,N
1514834975.7,286046987.0,N
1514834995.5,286046985.7,N
1514835015.3,286046985.5,N
1514835035.2,286046989.3,N
1514835055.0,286046990.7,N
1514835055.9,286046990.7,N
1514835075.7,286046988.7,N
1514835095.6,286046992.4,N
1514835115.4,286046993.8,N
1514835135.2,286046997.0,N
1514835155.1,286047000.3,N
1514835156.0,286047000.3,N
1514835175.8,286047001.9,N
1514835195.6,286047005.9,N
1514835215.5,286047008.9,N
1514835235.3,286047010.9,N
1514835255.1,286047011.4,N
1514835275.9,286047010.3,N
1514835295.7,286047009.7,N
1514835315.5,286047011.4,N
1514835335.4,286047013.6,N
1514835355.2,286047012.0,N
1514835375.0,286047015.2,N
1514835375.9,286047015.2,N
1514835395.7,286047012.6,N
1514835415.6,286047015.6,N
1514835435.4,286047013.1,N
1514835455.2,286047012.4,N
1514835475.1,286047010.9,N
1514835476.0,286047010.9,N
1514835495.8,286047010.1,N
1514835515.6,286047010.6,N
1514835535.5,286047008.6,N
1514835555.3,286047008.5,N
1514835575.1,286047008.9,N
1514835595.9,286047007.0,N
1514835615.7,286047004.8,N
1514835635.5,286047005.1,N
1514835655.4,286047005.9,N
1514835675.2,286047005.2,N
1514835695.0,286047003.4,N
1514835695.9,286047003.4,N
1514835715.8,286047003.0,N
1514835735.6,286047005.5,N
1514835755.4,286047007.6,N
1514835775.2,286047004.6,N
1514835795.1,286047005.3,N
1514835796.0,286047005.3,N
1514835815.8,286047006.8,N
1514835835.6,286047007.5,N
1514835855.5,286047001.4,N
1514835875.3,286047001.4,N
1514835895.1,286047003.4,N
1514835915.9,286047003.1,N
1514835935.7,286047010.3,N
1514835955.5,286047008.9,N
1514835975.4,286047006.7,N
1514835995.2,286047007.7,N
1514836015.0,286047011.9,Y
1514836015.9,286047011.9,P
1514836035.8,286047007.4,N
1514836055.6,286047005.9,N
1514836075.4,286047006.3,N
1514836095.3,286047007.4,Y
1514836115.1,286046999.9,P
1514836135.8,286047002.1,N
1514836155.7,286047004.0,N
1514836175.5,286047004.0,N
1514836195.3,286047006.0,N
1514836215.2,286047004.0,N
1514836235.9,286047003.6,N
1514836255.7,286047003.5,N
1514836275.5,286047003.6,N
1514836295.4,286047005.8,N
1514836315.2,286047005.0,N
1514836335.0,286047008.5,Y
1514836336.0,286047008.5,P
1514836355.8,286047002.9,N
1514836375.6,286047003.7,N
1514836395.4,286047004.3,N
1514836415.3,286047002.3,N
1514836435.1,286046999.4,N
1514836455.8,286046998.5,N
1514836475.7,286047001.4,N
1514836495.5,286047003.1,N
1514836515.3,286047007.2,N
1514836535.2,286047008.3,N
1514836555.9,286047005.3,N
1514836575.7,286047001.3,N
1514836595.6,286047002.4,N
1514836615.4,286047001.9,N
1514836635.2,286047000.7,N
1514836655.0,286046994.9,N
1514836655.9,286046994.9,N
1514836675.8,286046999.6,N
1514836695.6,286046998.4,N
1514836715.4,286046995.0,N
1514836735.3,286046998.0,N
1514836755.1,286046994.8,N
1514836775.8,286046989.1,N
1514836795.7,286046989.6,N
